Weather History for Rotterdam, Netherlands

Change the Weather History Date:

Tuesday, August 27, 2013

  Actual Average Record
Temperature  
Mean Temperature 64 °F -  
Max Temperature 76 °F 65 °F 76 °F (2013)
Min Temperature 52 °F 51 °F 50 °F (1998)
Degree Days  
Heating Degree Days 1    
Growing Degree Days 14 (Base 50)    
Moisture  
Dew Point 51 °F    
Average Humidity 62    
Maximum Humidity 94    
Minimum Humidity 28    
Precipitation  
Precipitation 0.00 in - - ()
Sea Level Pressure  
Sea Level Pressure 30.01 in    
Wind  
Wind Speed 5 mph ()    
Max Wind Speed 9 mph    
Max Gust Speed -    
Visibility 7.6 miles    
Events      
Averages and records for this station are not official NWS values.
T = Trace of Precipitation, MM = Missing Value Source: Averaged Metar Reports

Daily Weather History Graph

Daily Weather History Graph

Search for Another Location

Airport:

Trip Planner

Search our weather history database for the weather conditions in past years. The results will help you decide how hot, cold, wet, or windy it might be!

Date:

Astronomy

Aug. 27, 2013 Rise Set
Actual Time 6:46 AM CEST 8:40 PM CEST
Civil Twilight 6:10 AM CEST 9:16 PM CEST
Nautical Twilight 5:25 AM CEST 10:00 PM CEST
Astronomical Twilight 4:34 AM CEST 10:50 PM CEST
Moon 11:26 PM CEST (8/27) 2:23 PM CEST (8/27)
Length of Visible Light 15h 06m
Length of Day
13h 54m
Waning Gibbous, 60% of the Moon is Illuminated
Aug 27
Waning Gibbous
Aug 28
Last Quarter
Sep 5
New
Sep 12
First Quarter
Sep 19
Full

Hourly Weather History & Observations

Time (CEST) Temp. Dew Point Humidity Pressure Visibility Wind Dir Wind Speed Gust Speed Precip Events Conditions
12:25 AM 62.6 °F 53.6 °F 72% 30.04 in 6.2 mi NNE 4.6 mph - N/A   Unknown
12:55 AM 64.4 °F 53.6 °F 68% 30.04 in 6.2 mi NE 5.8 mph - N/A   Unknown
1:25 AM 64.4 °F 53.6 °F 68% 30.04 in 6.2 mi NE 6.9 mph - N/A   Unknown
1:55 AM 62.6 °F 51.8 °F 68% 30.04 in 6.2 mi NE 8.1 mph - N/A   Unknown
2:00 AM 62 °F 52 °F 61% 30.04 in 25 mi NE 6.7 mph - -   Partly Cloudy
2:25 AM 60.8 °F 51.8 °F 72% 30.04 in 6.2 mi ENE 8.1 mph - N/A   Unknown
2:55 AM 59.0 °F 51.8 °F 77% 30.01 in 6.2 mi NE 5.8 mph - N/A   Unknown
3:25 AM 59.0 °F 51.8 °F 77% 30.01 in 6.2 mi NE 4.6 mph - N/A   Unknown
3:55 AM 57.2 °F 51.8 °F 82% 30.01 in 6.2 mi NNE 4.6 mph - N/A   Unknown
4:25 AM 57.2 °F 50.0 °F 77% 30.01 in 6.2 mi NE 3.5 mph - N/A   Unknown
4:55 AM 57.2 °F 50.0 °F 77% 30.01 in 6.2 mi NNE 3.5 mph - N/A   Unknown
5:00 AM 56 °F 50 °F 75% 30.02 in 22 mi NNE 2.2 mph - -   Partly Cloudy
5:25 AM 55.4 °F 50.0 °F 82% 30.01 in 6.2 mi NNE 3.5 mph - N/A   Unknown
5:55 AM 53.6 °F 50.0 °F 88% 30.01 in 6.2 mi NE 3.5 mph - N/A   Unknown
6:25 AM 53.6 °F 50.0 °F 88% 30.01 in 6.2 mi NE 2.3 mph - N/A   Unknown
6:55 AM 53.6 °F 50.0 °F 88% 30.01 in 6.2 mi NE 3.5 mph - N/A   Unknown
7:25 AM 55.4 °F 50.0 °F 82% 30.01 in 6.2 mi NE 5.8 mph - N/A   Unknown
7:55 AM 57.2 °F 50.0 °F 77% 30.01 in 6.2 mi NE 5.8 mph - N/A   Unknown
8:00 AM 57 °F 51 °F 74% 30.03 in 19 mi NNE 4.5 mph - -   Partly Cloudy
8:25 AM 59.0 °F 51.8 °F 77% 30.01 in 6.2 mi NE 4.6 mph - N/A   Unknown
8:55 AM 59.0 °F 51.8 °F 77% 30.01 in 6.2 mi ENE 6.9 mph - N/A   Unknown
9:25 AM 59.0 °F 51.8 °F 77% 30.01 in 6.2 mi NE 5.8 mph - N/A   Unknown
9:55 AM 62.6 °F 51.8 °F 68% 30.01 in 6.2 mi ENE 6.9 mph - N/A   Unknown
10:25 AM 64.4 °F 51.8 °F 64% 30.01 in 6.2 mi ENE 8.1 mph - N/A   Unknown
10:55 AM 68.0 °F 53.6 °F 60% 30.01 in 6.2 mi ENE 4.6 mph - N/A   Unknown
11:00 AM 67 °F 52 °F 49% 30.03 in 17 mi ENE 4.5 mph - -   Scattered Clouds
11:25 AM 69.8 °F 53.6 °F 56% 30.01 in 6.2 mi ENE 6.9 mph - N/A   Unknown
11:55 AM 71.6 °F 55.4 °F 57% 30.01 in 6.2 mi NE 5.8 mph - N/A   Unknown
12:25 PM 73.4 °F 53.6 °F 50% 30.01 in 6.2 mi ENE 6.9 mph - N/A   Unknown
12:55 PM 73.4 °F 50.0 °F 44% 30.01 in 6.2 mi ENE 6.9 mph - N/A   Unknown
1:25 PM 75.2 °F 51.8 °F 44% 30.01 in 6.2 mi NE 6.9 mph - N/A   Unknown
1:55 PM 73.4 °F 50.0 °F 44% 30.01 in 6.2 mi NE 8.1 mph - N/A   Unknown
2:25 PM 75.2 °F 48.2 °F 38% 30.01 in 6.2 mi ENE 8.1 mph - N/A   Unknown
2:55 PM 75.2 °F 48.2 °F 38% 29.98 in 6.2 mi Variable 5.8 mph - N/A   Unknown
3:25 PM 71.6 °F 50.0 °F 46% 29.98 in 6.2 mi NE 8.1 mph - N/A   Unknown
3:55 PM 75.2 °F 48.2 °F 38% 29.98 in 6.2 mi NNE 5.8 mph - N/A   Unknown
4:00 PM 75 °F 48 °F 28% 30.00 in 17 mi NE 6.7 mph - -   Partly Cloudy
4:25 PM 73.4 °F 50.0 °F 44% 29.98 in 6.2 mi NE 5.8 mph - N/A   Unknown
4:55 PM 71.6 °F 50.0 °F 46% 29.98 in 6.2 mi NNE 6.9 mph - N/A   Unknown
5:00 PM 72 °F 49 °F 34% 30.00 in 19 mi NNE 4.5 mph - -   Partly Cloudy
5:25 PM 71.6 °F 48.2 °F 43% 29.98 in 6.2 mi NNE 8.1 mph - N/A   Unknown
5:55 PM 73.4 °F 46.4 °F 38% 29.98 in 6.2 mi North 5.8 mph - N/A   Unknown
6:00 PM 74 °F 48 °F 29% 30.00 in 22 mi NNE 6.7 mph - -   Mostly Cloudy
6:25 PM 73.4 °F 48.2 °F 41% 29.98 in 6.2 mi NNE 9.2 mph - N/A   Unknown
6:55 PM 71.6 °F 46.4 °F 41% 29.98 in 6.2 mi North 6.9 mph - N/A   Unknown
7:00 PM 72 °F 47 °F 30% 30.00 in 22 mi North 8.9 mph - -   Scattered Clouds
7:25 PM 71.6 °F 48.2 °F 43% 29.98 in 6.2 mi North 6.9 mph - N/A   Unknown
7:55 PM 68.0 °F 51.8 °F 56% 30.01 in 6.2 mi North 6.9 mph - N/A   Unknown
8:00 PM 68 °F 52 °F 46% 30.02 in 25 mi North 6.7 mph - -   Partly Cloudy
8:25 PM 66.2 °F 51.8 °F 60% 30.01 in 6.2 mi North 5.8 mph - N/A   Unknown
8:55 PM 64.4 °F 53.6 °F 68% 30.01 in 6.2 mi North 4.6 mph - N/A   Unknown
9:00 PM 64 °F 54 °F 62% 30.03 in 8 mi North 4.5 mph - -  
9:25 PM 62.6 °F 55.4 °F 77% 30.01 in 6.2 mi North 3.5 mph - N/A   Unknown
9:55 PM 62.6 °F 55.4 °F 77% 30.04 in 6.2 mi North 4.6 mph - N/A   Unknown
10:00 PM 62 °F 55 °F 72% 30.05 in 19 mi North 4.5 mph - -   Scattered Clouds
10:25 PM 62.6 °F 55.4 °F 77% 30.04 in 6.2 mi North 4.6 mph - N/A   Unknown
10:55 PM 60.8 °F 53.6 °F 77% 30.04 in 6.2 mi North 3.5 mph - N/A   Unknown
11:00 PM 59 °F 53 °F 76% 30.06 in 19 mi North 4.5 mph - -   Scattered Clouds
11:25 PM 59.0 °F 53.6 °F 82% 30.04 in 6.2 mi North 3.5 mph - N/A   Unknown
11:55 PM 55.4 °F 53.6 °F 94% 30.04 in 6.2 mi Variable 2.3 mph - N/A   Unknown